Showing default

QIANFAN-104, 66046

Orbit data source: Space-Track

QIANFAN-104, 66046 is a Chinese payload satellite in LEO that was launched on Fri, 17 Oct 2025 UTC via a CHANG ZHENG 6A launch vehicle from the Taiyaun Space Center, China (TSC). Payload-class satellites include a variety of spacecraft equipped with specific instruments for various scientific and technological missions. These include communications satellites like Starlink; space stations such as the ISS; scientific satellites like the Hubble; Earth observation satellites from companies like Planet Labs, Umbra, and HawkEye 360; GPS; miniature CubeSats for education and research; and military/defense satellites.

Loading next visibility...
Identifier
66046, 2025-233P
Orbit
LEO
Country
Flag of CNCN / PRC
Related business
Manufacturer
SECM
Mission
Operational Commercial Communications
Bus & Motor
QIANFAN, Unknown motor
Mass
267 kg wet, ~267 kg dry
Launch date (UTC)
2025-10-17 (8 months ago)
Launch vehicle
CHANG ZHENG 6A
Launch site
Taiyaun Space Center, China (TSC)
Object type
Payload
Rocket body
Debris
Shape & HBR
Box + 1 Pan, 14.5 m
Radar Cross Section
13.200 m², Large (>1 m²)

Expand to show TLE details & history
Last TLE update: 9 hours ago

TLE from 9 hours ago
0 QIANFAN-104
1 66046U 25233P   26177.59275703  .00000095  00000-0  12827-3 0  9995
2 66046  89.0006  42.1500 0002071  82.8447 277.2940 13.51000954 34503
Epoch: 2026-06-26T14:13Z
TLE epoch observation values (Epoch: 2026-06-26T14:13:34.207Z)
Latitude
0.00003°
Longitude
-85.96157°
Altitude
1,071.336 km
Speed
7.316 km/s
True Right ascension
02h 48m 36s
True Declination
0° 00' 00"
Sunlit
Object was in daylight at epoch
Visualization orbit readout
Latitude
Unknown
Longitude
Unknown
Altitude
Unknown
Speed
Unknown
Apparent Right ascension
Unknown
Apparent Declination
Unknown
Sunlit
N/A
Visualization observer readout
Local Sidereal Time
10:54:29
Azimuth
Unknown
Elevation
Unknown
Doppler factor
Unknown
Orbital elements
Apogee altitude
1,067.171 km
Perigee altitude
1,064.088 km
Semi-major axis
7,443.766 km
Eccentricity
0.00021
Inclination
89.0006°
RAAN
42.15°
Arg. of periapsis
82.8447°
True anomaly
277.27046°
Mean anomaly
277.294°
Eccentric anomaly
277.28223°
Mean motion
3.37951 °/min
Orbital period
106.52 mins
BSTAR
0.00012827
Loading maneuver chart data...
Computing Atmospheric mass density...
Loading historical data...
Loading historical data...
Loading historical data...
Loading historical data...
Loading historical data...
Loading historical data...
Loading historical data...

Documentation

Showing up to 5 results
|